SCP
0 0 0 0 0 0 0 0 0 0 0 0 0 0 0 0 0 0 0 0 0 0 0 0 0 0 0 0 0 0 0 0
0 0 0 0 0 0 0 0 0 0 0 0 0 0 0 0 0 0 0 0 0 0 0 0 0 0 0 0 0 0 0 0
0 0 0 0 0 0 0 0 0 0 0 0 0 0 0 0 0 0 0 0 0 0 0 0 0 0 0 0 0 0 0 0
0 0 0 0 0 0 0 0 0 0 0 0 0 0 0 0 0 0 0 0 0 0 0 0 0 0 0 0 0 0 0 0
0 0 0 0 0 0 0 0 0 0 0 0 0 0 0 0 0 0 0 0 0 0 0 0 0 0 0 0 0 0 0 0
0 0 0 0 0 0 0 0 0 0 0 0 0 0 0 0 0 0 0 0 0 0 0 0 0 0 0 0 0 0 0 0
0 0 0 0 0 0 0 0 0 0 0 0 0 0 0 0 0 0 0 0 0 0 0 0 0 0 0 0 0 0 0 0
0 0 0 0 0 0 0 0 0 0 0 0 0 0 0 0 0 0 0 0 0 0 0 0 0 0 0 0 0 0 0 0
0 0 0 0 0 0 0 0 0 0 0 0 0 0 0 0 0 0 0 0 0 0 0 0 0 0 0 0 0 0 0 0
0 0 0 0 0 0 0 0 0 0 0 0 0 0 0 0 0 0 0 0 0 0 0 0 0 0 0 0 0 0 0 0
0 0 0 0 0 0 0 0 0 0 0 0 0 0 0 0 0 0 0 0 0 0 0 0 0 0 0 0 0 0 0 0
0 0 0 0 0 0 0 0 0 0 0 0 0 0 0 0 0 0 0 0 0 0 0 0 0 0 0 0 0 0 0 0
0 0 0 0 0 0 0 0 0 0 0 0 0 0 0 0 0 0 0 0 0 0 0 0 0 0 0 0 0 0 0 0
0 0 0 0 0 0 0 0 0 0 0 0 0 0 0 0 0 0 0 0 0 0 0 0 0 0 0 0 0 0 0 0
0 0 0 0 0 0 0 0 0 0 0 0 0 0 0 0 0 0 0 0 0 0 0 0 0 0 0 0 0 0 0 0
0 0 0 0 0 0 0 0 0 0 0 0 0 0 0 0 0 0 0 0 0 0 0 0 0 0 0 0 0 0 0 0
0 0 0 0 0 0 0 0 0 0 0 0 0 0 0 0 0 0 0 0 0 0 0 0 0 0 0 0 0 0 0 0
0 0 0 0 0 0 0 0 0 0 0 0 0 0 0 0 0 0 0 0 0 0 0 0 0 0 0 0 0 0 0 0
0 0 0 0 0 0 0 0 0 0 0 0 0 0 0 0 0 0 0 0 0 0 0 0 0 0 0 0 0 0 0 0
0 0 0 0 0 0 0 0 0 0 0 0 0 0 0 0 0 0 0 0 0 0 0 0 0 0 0 0 0 0 0 0
Wind_Speed_500mb
47 54 64 83 86 84 83 83 81 82 80 79 78 76 74 76 73 67 61 56 50 44 39 32 25 18 13 8 5 2 1 3
40 48 59 77 86 84 83 84 84 83 81 82 80 78 78 79 74 68 63 57 51 45 40 34 27 23 19 14 10 5 3 4
37 44 57 75 84 84 83 85 87 82 80 81 80 82 85 82 76 70 64 58 51 47 42 37 32 28 23 19 14 9 7 8
38 48 58 73 81 83 84 86 86 86 84 85 87 89 89 84 78 73 66 60 56 52 47 42 36 31 28 23 19 15 14 14
38 48 58 69 78 82 85 87 89 89 89 90 92 91 88 83 79 75 69 63 59 54 49 45 39 36 32 28 25 23 22 21
46 52 58 67 76 82 84 89 91 93 94 94 91 90 88 84 81 76 71 66 60 55 52 49 44 40 35 34 31 29 28 29
60 61 63 66 73 81 87 91 93 98 99 96 93 92 89 86 83 78 74 69 63 58 55 51 47 40 40 41 38 36 35 36
67 70 67 67 72 80 89 92 96 99 100 100 97 93 88 84 82 79 75 70 64 60 55 55 45 43 47 47 44 43 41 42
77 75 67 67 68 75 86 90 94 101 102 99 94 88 85 83 80 77 74 68 60 59 54 57 48 51 54 54 50 50 48 48
64 66 69 72 69 70 78 86 92 100 101 99 92 86 85 84 80 78 74 60 65 58 54 57 63 57 61 58 56 55 51 55
59 66 63 62 58 62 71 78 84 92 96 91 82 85 86 82 80 77 63 63 66 67 55 69 57 63 60 59 62 59 59 60
40 39 39 42 46 52 56 61 60 65 74 81 83 82 79 77 76 72 65 60 64 72 58 62 63 58 59 64 67 63 65 65
27 31 30 32 37 43 44 40 43 48 55 65 70 72 72 77 73 63 55 66 73 64 65 62 59 58 61 66 66 66 69 70
19 23 26 27 29 35 39 42 42 41 43 48 45 45 50 56 55 56 59 66 70 66 61 58 57 58 60 62 65 68 71 73
28 29 29 28 28 24 25 26 28 31 33 35 39 40 40 41 43 48 54 57 57 56 55 52 53 56 59 62 63 63 65 66
26 25 26 27 30 31 30 32 33 32 32 33 33 34 35 38 40 42 44 46 46 45 46 50 55 57 60 60 57 58 58 59
29 29 33 35 35 35 34 30 28 29 30 29 29 31 33 36 39 43 45 47 49 51 53 54 56 57 57 58 58 55 50 47
38 37 37 35 31 28 26 26 26 24 24 26 28 31 34 38 41 45 47 49 52 53 55 55 56 58 58 54 46 44 46 48
39 37 32 28 26 23 22 22 23 24 26 28 30 33 36 39 42 45 48 48 47 48 49 50 50 46 43 41 46 48 51 54
35 31 27 23 21 21 22 23 25 26 27 30 33 36 38 40 43 44 46 46 46 45 44 43 42 41 42 46 50 54 54 54
Wind_Direction_500mb
248 237 227 218 216 215 216 217 215 213 210 211 211 212 211 205 199 197 196 195 195 194 193 194 193 196 195 207 221 258 351 323
252 239 228 218 217 218 218 217 218 218 214 214 214 211 207 204 201 200 200 199 199 199 199 199 202 204 209 211 214 209 233 279
250 240 226 218 218 220 221 220 220 221 217 216 212 207 204 204 204 203 203 202 203 203 203 206 209 209 212 217 216 226 242 268
241 238 228 222 221 223 224 223 220 218 217 213 209 206 206 206 205 205 204 205 206 208 210 211 211 212 214 218 225 236 249 261
240 236 233 229 227 226 226 224 221 218 216 214 210 210 209 208 208 208 208 210 212 213 213 213 212 215 220 226 235 242 250 266
254 244 235 232 230 229 229 226 221 219 216 214 213 212 211 210 210 211 212 213 216 217 217 216 217 222 229 234 238 246 257 268
258 251 241 235 234 231 230 226 221 218 217 215 213 213 212 212 212 213 214 216 217 219 223 224 225 228 237 238 243 249 261 268
261 259 254 248 237 234 230 226 221 219 217 217 214 213 213 213 214 216 217 218 220 223 227 233 231 246 245 244 247 255 263 268
263 259 258 256 246 236 233 229 223 219 218 217 215 214 214 215 218 219 220 221 226 228 240 238 245 247 251 247 250 258 264 272
263 260 259 256 247 236 230 227 223 221 220 219 218 217 218 219 219 221 221 227 237 234 240 242 245 249 248 247 254 260 268 272
262 255 252 249 240 232 227 225 223 223 221 221 220 224 223 223 223 221 229 237 231 246 236 245 253 245 247 251 257 263 269 273
254 248 245 236 228 222 222 226 228 226 223 223 223 225 226 226 221 228 237 229 234 250 246 252 248 246 249 252 257 264 270 273
233 224 217 212 208 207 209 211 213 215 218 222 224 224 222 233 243 232 224 230 238 247 249 247 246 247 248 251 258 266 270 273
202 193 181 183 188 193 194 198 201 208 214 217 218 222 227 230 229 227 227 230 241 244 246 246 247 249 254 257 262 265 268 274
167 167 167 173 178 182 201 206 206 198 197 199 205 209 212 218 222 226 229 234 238 242 245 249 252 255 259 263 266 266 268 273
171 171 170 170 169 174 179 180 179 181 187 193 197 201 208 214 220 226 230 235 241 247 251 253 254 258 261 265 269 272 272 270
155 156 154 156 159 160 162 170 178 186 191 197 203 208 214 220 224 226 229 234 241 246 250 254 259 264 269 272 274 271 270 271
149 149 149 151 157 164 175 184 188 194 202 207 214 221 226 229 231 235 239 244 249 253 255 258 263 269 274 273 270 259 264 264
154 156 161 167 173 181 188 197 206 213 218 225 230 233 235 237 239 242 245 248 251 256 262 267 270 270 268 268 272 274 280 282
169 173 174 183 194 201 210 220 227 233 237 238 238 237 235 236 239 241 244 246 250 253 258 260 262 264 270 277 278 280 282 284
Wind_Speed_850mb
47 54 64 83 86 84 83 83 81 82 80 79 78 76 74 76 73 67 61 56 50 44 39 32 25 18 13 8 5 2 1 3
40 48 59 77 86 84 83 84 84 83 81 82 80 78 78 79 74 68 63 57 51 45 40 34 27 23 19 14 10 5 3 4
37 44 57 75 84 84 83 85 87 82 80 81 80 82 85 82 76 70 64 58 51 47 42 37 32 28 23 19 14 9 7 8
38 48 58 73 81 83 84 86 86 86 84 85 87 89 89 84 78 73 66 60 56 52 47 42 36 31 28 23 19 15 14 14
38 48 58 69 78 82 85 87 89 89 89 90 92 91 88 83 79 75 69 63 59 54 49 45 39 36 32 28 25 23 22 21
46 52 58 67 76 82 84 89 91 93 94 94 91 90 88 84 81 76 71 66 60 55 52 49 44 40 35 34 31 29 28 29
60 61 63 66 73 81 87 91 93 98 99 96 93 92 89 86 83 78 74 69 63 58 55 51 47 40 40 41 38 36 35 36
67 70 67 67 72 80 89 92 96 99 100 100 97 93 88 84 82 79 75 70 64 60 55 55 45 43 47 47 44 43 41 42
77 75 67 67 68 75 86 90 94 101 102 99 94 88 85 83 80 77 74 68 60 59 54 57 48 51 54 54 50 50 48 48
64 66 69 72 69 70 78 86 92 100 101 99 92 86 85 84 80 78 74 60 65 58 54 57 63 57 61 58 56 55 51 55
59 66 63 62 58 62 71 78 84 92 96 91 82 85 86 82 80 77 63 63 66 67 55 69 57 63 60 59 62 59 59 60
40 39 39 42 46 52 56 61 60 65 74 81 83 82 79 77 76 72 65 60 64 72 58 62 63 58 59 64 67 63 65 65
27 31 30 32 37 43 44 40 43 48 55 65 70 72 72 77 73 63 55 66 73 64 65 62 59 58 61 66 66 66 69 70
19 23 26 27 29 35 39 42 42 41 43 48 45 45 50 56 55 56 59 66 70 66 61 58 57 58 60 62 65 68 71 73
28 29 29 28 28 24 25 26 28 31 33 35 39 40 40 41 43 48 54 57 57 56 55 52 53 56 59 62 63 63 65 66
26 25 26 27 30 31 30 32 33 32 32 33 33 34 35 38 40 42 44 46 46 45 46 50 55 57 60 60 57 58 58 59
29 29 33 35 35 35 34 30 28 29 30 29 29 31 33 36 39 43 45 47 49 51 53 54 56 57 57 58 58 55 50 47
38 37 37 35 31 28 26 26 26 24 24 26 28 31 34 38 41 45 47 49 52 53 55 55 56 58 58 54 46 44 46 48
39 37 32 28 26 23 22 22 23 24 26 28 30 33 36 39 42 45 48 48 47 48 49 50 50 46 43 41 46 48 51 54
35 31 27 23 21 21 22 23 25 26 27 30 33 36 38 40 43 44 46 46 46 45 44 43 42 41 42 46 50 54 54 54
Wind_Direction_850mb
248 237 227 218 216 215 216 217 215 213 210 211 211 212 211 205 199 197 196 195 195 194 193 194 193 196 195 207 221 258 351 323
252 239 228 218 217 218 218 217 218 218 214 214 214 211 207 204 201 200 200 199 199 199 199 199 202 204 209 211 214 209 233 279
250 240 226 218 218 220 221 220 220 221 217 216 212 207 204 204 204 203 203 202 203 203 203 206 209 209 212 217 216 226 242 268
241 238 228 222 221 223 224 223 220 218 217 213 209 206 206 206 205 205 204 205 206 208 210 211 211 212 214 218 225 236 249 261
240 236 233 229 227 226 226 224 221 218 216 214 210 210 209 208 208 208 208 210 212 213 213 213 212 215 220 226 235 242 250 266
254 244 235 232 230 229 229 226 221 219 216 214 213 212 211 210 210 211 212 213 216 217 217 216 217 222 229 234 238 246 257 268
258 251 241 235 234 231 230 226 221 218 217 215 213 213 212 212 212 213 214 216 217 219 223 224 225 228 237 238 243 249 261 268
261 259 254 248 237 234 230 226 221 219 217 217 214 213 213 213 214 216 217 218 220 223 227 233 231 246 245 244 247 255 263 268
263 259 258 256 246 236 233 229 223 219 218 217 215 214 214 215 218 219 220 221 226 228 240 238 245 247 251 247 250 258 264 272
263 260 259 256 247 236 230 227 223 221 220 219 218 217 218 219 219 221 221 227 237 234 240 242 245 249 248 247 254 260 268 272
262 255 252 249 240 232 227 225 223 223 221 221 220 224 223 223 223 221 229 237 231 246 236 245 253 245 247 251 257 263 269 273
254 248 245 236 228 222 222 226 228 226 223 223 223 225 226 226 221 228 237 229 234 250 246 252 248 246 249 252 257 264 270 273
233 224 217 212 208 207 209 211 213 215 218 222 224 224 222 233 243 232 224 230 238 247 249 247 246 247 248 251 258 266 270 273
202 193 181 183 188 193 194 198 201 208 214 217 218 222 227 230 229 227 227 230 241 244 246 246 247 249 254 257 262 265 268 274
167 167 167 173 178 182 201 206 206 198 197 199 205 209 212 218 222 226 229 234 238 242 245 249 252 255 259 263 266 266 268 273
171 171 170 170 169 174 179 180 179 181 187 193 197 201 208 214 220 226 230 235 241 247 251 253 254 258 261 265 269 272 272 270
155 156 154 156 159 160 162 170 178 186 191 197 203 208 214 220 224 226 229 234 241 246 250 254 259 264 269 272 274 271 270 271
149 149 149 151 157 164 175 184 188 194 202 207 214 221 226 229 231 235 239 244 249 253 255 258 263 269 274 273 270 259 264 264
154 156 161 167 173 181 188 197 206 213 218 225 230 233 235 237 239 242 245 248 251 256 262 267 270 270 268 268 272 274 280 282
169 173 174 183 194 201 210 220 227 233 237 238 238 237 235 236 239 241 244 246 250 253 258 260 262 264 270 277 278 280 282 284